owner,sensor,date,latitude,longitude,vertical_datum,sea_water_temperature,qcFlag
Chevron,ioos:station:wmo:42876:1,2021-05-01T00:05:00Z,26.2975,-91.0940,23.9,26.1,11111222
Chevron,ioos:station:wmo:42876:1,2021-05-01T00:15:00Z,26.2975,-91.0940,24.0,26.1,11111222
Chevron,ioos:station:wmo:42876:1,2021-05-01T00:25:00Z,26.2975,-91.0939,23.5,26.0,11111222
Chevron,ioos:station:wmo:42876:1,2021-05-01T00:35:00Z,26.2975,-91.0939,23.6,25.9,11111222
Chevron,ioos:station:wmo:42876:1,2021-05-01T00:45:00Z,26.2975,-91.0939,23.5,25.9,11111222
Chevron,ioos:station:wmo:42876:1,2021-05-01T00:55:00Z,26.2975,-91.0940,23.6,25.9,11111222
Chevron,ioos:station:wmo:42876:1,2021-05-01T01:05:00Z,26.2975,-91.0940,24.0,25.9,11111222
Chevron,ioos:station:wmo:42876:1,2021-05-01T01:15:00Z,26.2975,-91.0940,24.0,25.9,11111222
Chevron,ioos:station:wmo:42876:1,2021-05-01T01:25:00Z,26.2975,-91.0940,24.0,25.9,11111222
Chevron,ioos:station:wmo:42876:1,2021-05-01T01:35:00Z,26.2975,-91.0940,24.0,25.9,11111222
Chevron,ioos:station:wmo:42876:1,2021-05-01T01:45:00Z,26.2975,-91.0940,23.8,25.9,11111222
Chevron,ioos:station:wmo:42876:1,2021-05-01T01:55:00Z,26.2975,-91.0940,23.6,25.8,11111222
Chevron,ioos:station:wmo:42876:1,2021-05-01T02:05:00Z,26.2975,-91.0940,23.4,25.8,11111222
Chevron,ioos:station:wmo:42876:1,2021-05-01T02:15:00Z,26.2975,-91.0940,24.0,25.8,11111222
Chevron,ioos:station:wmo:42876:1,2021-05-01T02:25:00Z,26.2975,-91.0940,23.7,25.8,11111222
Chevron,ioos:station:wmo:42876:1,2021-05-01T02:35:00Z,26.2975,-91.0940,23.6,25.9,11111222
Chevron,ioos:station:wmo:42876:1,2021-05-01T02:45:00Z,26.2975,-91.0940,24.0,25.9,11111222
Chevron,ioos:station:wmo:42876:1,2021-05-01T02:55:00Z,26.2975,-91.0940,23.9,25.9,11111222
Chevron,ioos:station:wmo:42876:1,2021-05-01T03:05:00Z,26.2975,-91.0940,24.0,25.9,11111222
Chevron,ioos:station:wmo:42876:1,2021-05-01T03:15:00Z,26.2975,-91.0940,23.8,25.9,11111222
Chevron,ioos:station:wmo:42876:1,2021-05-01T03:25:00Z,26.2975,-91.0940,23.8,25.9,11111222
Chevron,ioos:station:wmo:42876:1,2021-05-01T03:35:00Z,26.2975,-91.0940,24.3,25.9,11111222
Chevron,ioos:station:wmo:42876:1,2021-05-01T03:45:00Z,26.2975,-91.0940,24.1,25.9,11111222
Chevron,ioos:station:wmo:42876:1,2021-05-01T03:55:00Z,26.2975,-91.0940,24.0,25.9,11111222
Chevron,ioos:station:wmo:42876:1,2021-05-01T04:05:00Z,26.2975,-91.0940,24.0,25.9,11111222
Chevron,ioos:station:wmo:42876:1,2021-05-01T04:15:00Z,26.2975,-91.0940,24.0,25.9,11111222
Chevron,ioos:station:wmo:42876:1,2021-05-01T04:25:00Z,26.2975,-91.0940,23.9,25.9,11111222
Chevron,ioos:station:wmo:42876:1,2021-05-01T04:35:00Z,26.2975,-91.0940,24.1,25.8,11111222
Chevron,ioos:station:wmo:42876:1,2021-05-01T04:45:00Z,26.2975,-91.0940,24.1,25.8,11111222
Chevron,ioos:station:wmo:42876:1,2021-05-01T04:55:00Z,26.2975,-91.0940,23.9,25.8,11111222
Chevron,ioos:station:wmo:42876:1,2021-05-01T05:05:00Z,26.2975,-91.0940,24.1,25.8,11111222
Chevron,ioos:station:wmo:42876:1,2021-05-01T05:15:00Z,26.2975,-91.0940,24.1,25.7,11111222
Chevron,ioos:station:wmo:42876:1,2021-05-01T05:25:00Z,26.2975,-91.0940,24.0,25.7,11111222
Chevron,ioos:station:wmo:42876:1,2021-05-01T05:35:00Z,26.2975,-91.0940,24.0,25.6,11111222
Chevron,ioos:station:wmo:42876:1,2021-05-01T05:45:00Z,26.2975,-91.0940,24.2,25.5,11111222
Chevron,ioos:station:wmo:42876:1,2021-05-01T05:55:00Z,26.2975,-91.0940,24.3,25.5,11111222
Chevron,ioos:station:wmo:42876:1,2021-05-01T06:05:00Z,26.2975,-91.0940,24.4,25.4,11111222
Chevron,ioos:station:wmo:42876:1,2021-05-01T06:15:00Z,26.2975,-91.0940,24.1,25.5,11111222
Chevron,ioos:station:wmo:42876:1,2021-05-01T06:25:00Z,26.2975,-91.0940,24.0,25.7,11111222
Chevron,ioos:station:wmo:42876:1,2021-05-01T06:35:00Z,26.2975,-91.0940,24.0,25.7,11111222
Chevron,ioos:station:wmo:42876:1,2021-05-01T06:45:00Z,26.2975,-91.0940,23.9,25.7,11111222
Chevron,ioos:station:wmo:42876:1,2021-05-01T06:55:00Z,26.2975,-91.0940,23.8,25.7,11111222
Chevron,ioos:station:wmo:42876:1,2021-05-01T07:05:00Z,26.2975,-91.0939,23.9,25.7,11111222
Chevron,ioos:station:wmo:42876:1,2021-05-01T07:15:00Z,26.2975,-91.0940,24.0,25.7,11111222
Chevron,ioos:station:wmo:42876:1,2021-05-01T07:25:00Z,26.2975,-91.0940,24.2,25.8,11111222
Chevron,ioos:station:wmo:42876:1,2021-05-01T07:35:00Z,26.2975,-91.0940,24.0,25.8,11111222
Chevron,ioos:station:wmo:42876:1,2021-05-01T07:45:00Z,26.2975,-91.0940,24.2,25.8,11111222
Chevron,ioos:station:wmo:42876:1,2021-05-01T07:55:00Z,26.2975,-91.0940,24.2,25.8,11111222
Chevron,ioos:station:wmo:42876:1,2021-05-01T08:05:00Z,26.2975,-91.0939,24.2,25.8,11111222
Chevron,ioos:station:wmo:42876:1,2021-05-01T08:15:00Z,26.2975,-91.0940,24.0,25.8,11111222
Chevron,ioos:station:wmo:42876:1,2021-05-01T08:25:00Z,26.2975,-91.0939,24.0,25.7,11111222
Chevron,ioos:station:wmo:42876:1,2021-05-01T08:35:00Z,26.2975,-91.0939,23.5,25.7,11111222
Chevron,ioos:station:wmo:42876:1,2021-05-01T08:45:00Z,26.2975,-91.0939,23.7,25.7,11111222
Chevron,ioos:station:wmo:42876:1,2021-05-01T08:55:00Z,26.2975,-91.0940,23.6,25.7,11111222
Chevron,ioos:station:wmo:42876:1,2021-05-01T09:05:00Z,26.2975,-91.0939,24.1,25.7,11111222
Chevron,ioos:station:wmo:42876:1,2021-05-01T09:15:00Z,26.2975,-91.0939,23.7,25.6,11111222
Chevron,ioos:station:wmo:42876:1,2021-05-01T09:25:00Z,26.2975,-91.0939,23.6,25.5,11111222
Chevron,ioos:station:wmo:42876:1,2021-05-01T09:35:00Z,26.2975,-91.0939,23.5,25.6,11111222
Chevron,ioos:station:wmo:42876:1,2021-05-01T09:45:00Z,26.2975,-91.0939,23.6,25.6,11111222
Chevron,ioos:station:wmo:42876:1,2021-05-01T09:55:00Z,26.2975,-91.0940,23.7,25.5,11111222
Chevron,ioos:station:wmo:42876:1,2021-05-01T10:05:00Z,26.2975,-91.0939,23.6,25.5,11111222
Chevron,ioos:station:wmo:42876:1,2021-05-01T10:15:00Z,26.2975,-91.0939,23.4,25.5,11111222
Chevron,ioos:station:wmo:42876:1,2021-05-01T10:25:00Z,26.2975,-91.0939,23.8,25.5,11111222
Chevron,ioos:station:wmo:42876:1,2021-05-03T16:18:00Z,26.2975,-91.0940,24.7,25.6,11111222
Chevron,ioos:station:wmo:42876:1,2021-05-03T16:28:00Z,26.2975,-91.0940,23.8,25.6,11111222
Chevron,ioos:station:wmo:42876:1,2021-05-03T16:38:00Z,26.2975,-91.0940,24.8,25.6,11111222
Chevron,ioos:station:wmo:42876:1,2021-05-03T16:48:00Z,26.2975,-91.0940,24.9,25.6,11111222
Chevron,ioos:station:wmo:42876:1,2021-05-03T16:58:00Z,26.2975,-91.0940,24.7,25.6,11111222
Chevron,ioos:station:wmo:42876:1,2021-05-03T17:08:00Z,26.2975,-91.0940,24.4,25.6,11111222
Chevron,ioos:station:wmo:42876:1,2021-05-03T17:18:00Z,26.2975,-91.0940,24.4,25.6,11111222
Chevron,ioos:station:wmo:42876:1,2021-05-03T17:28:00Z,26.2975,-91.0940,24.5,25.6,11111222
Chevron,ioos:station:wmo:42876:1,2021-05-03T17:38:00Z,26.2975,-91.0940,24.3,25.6,11111222
Chevron,ioos:station:wmo:42876:1,2021-05-03T17:48:00Z,26.2975,-91.0940,24.5,25.6,11111222
Chevron,ioos:station:wmo:42876:1,2021-05-03T17:58:00Z,26.2975,-91.0940,24.0,25.7,11111222
Chevron,ioos:station:wmo:42876:1,2021-05-03T18:08:00Z,26.2975,-91.0940,24.0,25.7,11111222
Chevron,ioos:station:wmo:42876:1,2021-05-03T18:18:00Z,26.2975,-91.0940,24.3,25.7,11111222
Chevron,ioos:station:wmo:42876:1,2021-05-03T18:28:00Z,26.2975,-91.0940,24.5,25.7,11111222
Chevron,ioos:station:wmo:42876:1,2021-05-03T18:38:00Z,26.2975,-91.0940,24.7,25.7,11111222
Chevron,ioos:station:wmo:42876:1,2021-05-03T18:48:00Z,26.2975,-91.0940,24.3,25.7,11111222
Chevron,ioos:station:wmo:42876:1,2021-05-03T18:58:00Z,26.2975,-91.0940,24.6,25.7,11111222
Chevron,ioos:station:wmo:42876:1,2021-05-03T19:08:00Z,26.2975,-91.0940,24.4,25.7,11111222
Chevron,ioos:station:wmo:42876:1,2021-05-03T19:18:00Z,26.2975,-91.0940,24.3,25.7,11111222
Chevron,ioos:station:wmo:42876:1,2021-05-03T19:28:00Z,26.2975,-91.0940,24.6,25.7,11111222
Chevron,ioos:station:wmo:42876:1,2021-05-03T19:38:00Z,26.2975,-91.0940,24.2,25.7,11111222
Chevron,ioos:station:wmo:42876:1,2021-05-03T19:48:00Z,26.2975,-91.0940,24.2,25.8,11111222
Chevron,ioos:station:wmo:42876:1,2021-05-03T19:58:00Z,26.2975,-91.0940,24.4,25.7,11111222
Chevron,ioos:station:wmo:42876:1,2021-05-03T20:08:00Z,26.2975,-91.0940,24.8,25.8,11111222
Chevron,ioos:station:wmo:42876:1,2021-05-03T20:18:00Z,26.2975,-91.0940,24.5,25.8,11111222
Chevron,ioos:station:wmo:42876:1,2021-05-03T20:28:00Z,26.2975,-91.0940,24.7,25.8,11111222
Chevron,ioos:station:wmo:42876:1,2021-05-03T21:30:00Z,26.2975,-91.0940,24.4,25.8,11111222
Chevron,ioos:station:wmo:42876:1,2021-05-03T21:40:00Z,26.2975,-91.0940,24.2,25.8,11111222
Chevron,ioos:station:wmo:42876:1,2021-05-03T21:50:00Z,26.2975,-91.0940,24.3,25.8,11111222
Chevron,ioos:station:wmo:42876:1,2021-05-03T22:00:00Z,26.2975,-91.0940,24.2,25.8,11111222
Chevron,ioos:station:wmo:42876:1,2021-05-03T22:12:00Z,26.2975,-91.0940,24.4,25.8,11111222
Chevron,ioos:station:wmo:42876:1,2021-05-03T22:22:00Z,26.2975,-91.0940,24.3,25.8,11111222
Chevron,ioos:station:wmo:42876:1,2021-05-03T22:32:00Z,26.2975,-91.0940,24.6,25.8,11111222
Chevron,ioos:station:wmo:42876:1,2021-05-03T22:42:00Z,26.2975,-91.0940,24.4,25.8,11111222
Chevron,ioos:station:wmo:42876:1,2021-05-03T22:52:00Z,26.2975,-91.0940,24.3,25.8,11111222
Chevron,ioos:station:wmo:42876:1,2021-05-03T23:02:00Z,26.2975,-91.0940,24.4,25.8,11111222
Chevron,ioos:station:wmo:42876:1,2021-05-03T23:12:00Z,26.2975,-91.0940,24.5,25.8,11111222
Chevron,ioos:station:wmo:42876:1,2021-05-03T23:22:00Z,26.2975,-91.0940,24.2,25.8,11111222
Chevron,ioos:station:wmo:42876:1,2021-05-03T23:32:00Z,26.2975,-91.0940,24.4,25.8,11111222
Chevron,ioos:station:wmo:42876:1,2021-05-03T23:42:00Z,26.2975,-91.0940,24.5,25.8,11111222
Chevron,ioos:station:wmo:42876:1,2021-05-03T23:52:00Z,26.2975,-91.0940,24.8,25.8,11111222
Chevron,ioos:station:wmo:42876:1,2021-05-04T00:02:00Z,26.2975,-91.0940,24.8,25.8,11111222
Chevron,ioos:station:wmo:42876:1,2021-05-04T00:12:00Z,26.2975,-91.0940,24.6,25.8,11111222
Chevron,ioos:station:wmo:42876:1,2021-05-04T00:22:00Z,26.2975,-91.0940,24.2,25.8,11111222
Chevron,ioos:station:wmo:42876:1,2021-05-04T01:45:00Z,26.2975,-91.0940,24.2,25.7,11111222
Chevron,ioos:station:wmo:42876:1,2021-05-04T01:55:00Z,26.2975,-91.0940,24.2,25.7,11111222
Chevron,ioos:station:wmo:42876:1,2021-05-04T02:05:00Z,26.2975,-91.0940,24.5,25.8,11111222
Chevron,ioos:station:wmo:42876:1,2021-05-04T02:15:00Z,26.2975,-91.0940,24.7,25.8,11111222
Chevron,ioos:station:wmo:42876:1,2021-05-04T02:25:00Z,26.2975,-91.0940,24.8,25.7,11111222
Chevron,ioos:station:wmo:42876:1,2021-05-04T02:35:00Z,26.2975,-91.0940,24.8,25.7,11111222
Chevron,ioos:station:wmo:42876:1,2021-05-04T02:45:00Z,26.2975,-91.0940,24.5,25.7,11111222
Chevron,ioos:station:wmo:42876:1,2021-05-04T02:55:00Z,26.2975,-91.0940,24.5,25.7,11111222
Chevron,ioos:station:wmo:42876:1,2021-05-04T03:05:00Z,26.2975,-91.0940,24.3,25.7,11111222
Chevron,ioos:station:wmo:42876:1,2021-05-04T06:22:00Z,26.2975,-91.0940,24.3,25.5,11111222
Chevron,ioos:station:wmo:42876:1,2021-05-04T06:32:00Z,26.2975,-91.0940,23.8,25.3,11111222
Chevron,ioos:station:wmo:42876:1,2021-05-04T06:42:00Z,26.2975,-91.0940,23.6,25.3,11111222
Chevron,ioos:station:wmo:42876:1,2021-05-04T06:52:00Z,26.2975,-91.0940,24.0,25.5,11111222
Chevron,ioos:station:wmo:42876:1,2021-05-04T07:02:00Z,26.2975,-91.0939,23.6,25.4,11111222
Chevron,ioos:station:wmo:42876:1,2021-05-04T08:03:00Z,26.2975,-91.0940,24.2,25.2,11111222
Chevron,ioos:station:wmo:42876:1,2021-05-04T08:13:00Z,26.2975,-91.0940,24.0,25.2,11111222
Chevron,ioos:station:wmo:42876:1,2021-05-04T08:23:00Z,26.2975,-91.0940,24.4,25.4,11111222
Chevron,ioos:station:wmo:42876:1,2021-05-04T08:33:00Z,26.2975,-91.0940,24.5,25.4,11111222
Chevron,ioos:station:wmo:42876:1,2021-05-04T08:43:00Z,26.2975,-91.0940,24.4,25.5,11111222
Chevron,ioos:station:wmo:42876:1,2021-05-04T08:53:00Z,26.2975,-91.0940,24.4,25.5,11111222
Chevron,ioos:station:wmo:42876:1,2021-05-04T09:03:00Z,26.2975,-91.0940,24.5,25.6,11111222
Chevron,ioos:station:wmo:42876:1,2021-05-04T09:13:00Z,26.2975,-91.0940,24.4,25.7,11111222
Chevron,ioos:station:wmo:42876:1,2021-05-04T09:23:00Z,26.2975,-91.0940,24.7,25.7,11111222
Chevron,ioos:station:wmo:42876:1,2021-05-04T09:33:00Z,26.2975,-91.0940,24.2,25.7,11111222
Chevron,ioos:station:wmo:42876:1,2021-05-04T09:43:00Z,26.2975,-91.0940,24.4,25.7,11111222
Chevron,ioos:station:wmo:42876:1,2021-05-04T09:53:00Z,26.2975,-91.0940,24.4,25.7,11111222
Chevron,ioos:station:wmo:42876:1,2021-05-04T10:03:00Z,26.2975,-91.0940,24.3,25.7,11111222
Chevron,ioos:station:wmo:42876:1,2021-05-04T10:13:00Z,26.2975,-91.0940,24.5,25.7,11111222
Chevron,ioos:station:wmo:42876:1,2021-05-04T10:23:00Z,26.2975,-91.0940,24.7,25.7,11111222
Chevron,ioos:station:wmo:42876:1,2021-05-04T10:33:00Z,26.2975,-91.0940,24.4,25.7,11111222
Chevron,ioos:station:wmo:42876:1,2021-05-04T10:43:00Z,26.2975,-91.0940,24.4,25.7,11111222
Chevron,ioos:station:wmo:42876:1,2021-05-04T10:53:00Z,26.2975,-91.0940,24.4,25.7,11111222
Chevron,ioos:station:wmo:42876:1,2021-05-04T11:03:00Z,26.2975,-91.0939,24.4,25.7,11111222
Chevron,ioos:station:wmo:42876:1,2021-05-04T11:13:00Z,26.2975,-91.0940,24.3,25.7,11111222
Chevron,ioos:station:wmo:42876:1,2021-05-04T11:23:00Z,26.2975,-91.0939,24.1,25.7,11111222
Chevron,ioos:station:wmo:42876:1,2021-05-04T11:33:00Z,26.2975,-91.0940,24.3,25.7,11111222
Chevron,ioos:station:wmo:42876:1,2021-05-04T11:43:00Z,26.2975,-91.0939,24.7,25.7,11111222
Chevron,ioos:station:wmo:42876:1,2021-05-04T11:53:00Z,26.2975,-91.0940,24.3,25.6,11111222
Chevron,ioos:station:wmo:42876:1,2021-05-04T12:03:00Z,26.2975,-91.0939,23.9,25.6,11111222
Chevron,ioos:station:wmo:42876:1,2021-05-04T12:13:00Z,26.2975,-91.0940,24.1,25.6,11111222
Chevron,ioos:station:wmo:42876:1,2021-05-04T12:23:00Z,26.2975,-91.0940,24.0,25.6,11111222
Chevron,ioos:station:wmo:42876:1,2021-05-04T12:33:00Z,26.2975,-91.0939,24.1,25.6,11111222
Chevron,ioos:station:wmo:42876:1,2021-05-04T12:43:00Z,26.2975,-91.0940,24.2,25.6,11111222
Chevron,ioos:station:wmo:42876:1,2021-05-04T12:53:00Z,26.2975,-91.0939,24.2,25.6,11111222
Chevron,ioos:station:wmo:42876:1,2021-05-04T13:03:00Z,26.2975,-91.0939,23.9,25.7,11111222
Chevron,ioos:station:wmo:42876:1,2021-05-04T13:13:00Z,26.2975,-91.0940,24.1,25.7,11111222
Chevron,ioos:station:wmo:42876:1,2021-05-04T13:23:00Z,26.2975,-91.0940,24.6,25.7,11111222
Chevron,ioos:station:wmo:42876:1,2021-05-04T13:33:00Z,26.2975,-91.0940,24.8,25.7,11111222
Chevron,ioos:station:wmo:42876:1,2021-05-04T13:43:00Z,26.2975,-91.0940,24.8,25.7,11111222
Chevron,ioos:station:wmo:42876:1,2021-05-04T13:53:00Z,26.2975,-91.0940,24.8,25.7,11111222
Chevron,ioos:station:wmo:42876:1,2021-05-04T14:03:00Z,26.2975,-91.0940,24.7,25.7,11111222
Chevron,ioos:station:wmo:42876:1,2021-05-04T14:13:00Z,26.2975,-91.0940,24.1,25.7,11111222
Chevron,ioos:station:wmo:42876:1,2021-05-04T14:23:00Z,26.2975,-91.0940,24.0,25.7,11111222
Chevron,ioos:station:wmo:42876:1,2021-05-04T14:33:00Z,26.2975,-91.0939,24.0,25.7,11111222
Chevron,ioos:station:wmo:42876:1,2021-05-04T14:43:00Z,26.2975,-91.0940,24.0,25.6,11111222
Chevron,ioos:station:wmo:42876:1,2021-05-04T14:53:00Z,26.2975,-91.0940,24.2,25.6,11111222
Chevron,ioos:station:wmo:42876:1,2021-05-04T15:03:00Z,26.2975,-91.0940,24.1,25.6,11111222
Chevron,ioos:station:wmo:42876:1,2021-05-04T15:13:00Z,26.2975,-91.0939,24.0,25.6,11111222
Chevron,ioos:station:wmo:42876:1,2021-05-04T15:23:00Z,26.2975,-91.0940,24.2,25.6,11111222
Chevron,ioos:station:wmo:42876:1,2021-05-04T15:33:00Z,26.2975,-91.0940,24.1,25.6,11111222
Chevron,ioos:station:wmo:42876:1,2021-05-04T15:43:00Z,26.2975,-91.0940,24.1,25.6,11111222
Chevron,ioos:station:wmo:42876:1,2021-05-04T15:53:00Z,26.2975,-91.0940,24.0,25.6,11111222
Chevron,ioos:station:wmo:42876:1,2021-05-04T16:03:00Z,26.2975,-91.0940,24.3,25.7,11111222
Chevron,ioos:station:wmo:42876:1,2021-05-04T16:13:00Z,26.2975,-91.0939,24.2,25.7,11111222
Chevron,ioos:station:wmo:42876:1,2021-05-04T16:23:00Z,26.2975,-91.0940,24.3,25.7,11111222
Chevron,ioos:station:wmo:42876:1,2021-05-04T16:33:00Z,26.2975,-91.0940,24.3,25.7,11111222
Chevron,ioos:station:wmo:42876:1,2021-05-04T16:43:00Z,26.2975,-91.0940,24.2,25.7,11111222
Chevron,ioos:station:wmo:42876:1,2021-05-04T16:53:00Z,26.2975,-91.0940,24.3,25.7,11111222
Chevron,ioos:station:wmo:42876:1,2021-05-04T17:03:00Z,26.2975,-91.0940,24.2,25.7,11111222
Chevron,ioos:station:wmo:42876:1,2021-05-04T17:13:00Z,26.2975,-91.0939,24.2,25.7,11111222
Chevron,ioos:station:wmo:42876:1,2021-05-04T17:23:00Z,26.2975,-91.0940,24.4,25.7,11111222
Chevron,ioos:station:wmo:42876:1,2021-05-04T17:33:00Z,26.2975,-91.0939,24.2,25.7,11111222
Chevron,ioos:station:wmo:42876:1,2021-05-04T17:43:00Z,26.2975,-91.0939,24.1,25.7,11111222
Chevron,ioos:station:wmo:42876:1,2021-05-04T17:53:00Z,26.2975,-91.0940,24.1,25.7,11111222
Chevron,ioos:station:wmo:42876:1,2021-05-04T18:03:00Z,26.2975,-91.0940,24.4,25.7,11111222
Chevron,ioos:station:wmo:42876:1,2021-05-04T18:13:00Z,26.2975,-91.0939,24.3,25.7,11111222
Chevron,ioos:station:wmo:42876:1,2021-05-04T18:23:00Z,26.2975,-91.0940,24.4,25.7,11111222
Chevron,ioos:station:wmo:42876:1,2021-05-04T18:33:00Z,26.2975,-91.0940,24.2,25.7,11111222
Chevron,ioos:station:wmo:42876:1,2021-05-04T18:43:00Z,26.2975,-91.0940,24.2,25.7,11111222
Chevron,ioos:station:wmo:42876:1,2021-05-04T18:53:00Z,26.2975,-91.0939,24.2,25.8,11111222
Chevron,ioos:station:wmo:42876:1,2021-05-04T19:03:00Z,26.2975,-91.0940,24.1,25.7,11111222
Chevron,ioos:station:wmo:42876:1,2021-05-04T19:13:00Z,26.2975,-91.0940,24.4,25.7,11111222
Chevron,ioos:station:wmo:42876:1,2021-05-04T19:23:00Z,26.2975,-91.0939,23.9,25.7,11111222
Chevron,ioos:station:wmo:42876:1,2021-05-04T19:33:00Z,26.2975,-91.0939,23.9,25.7,11111222
Chevron,ioos:station:wmo:42876:1,2021-05-04T19:43:00Z,26.2975,-91.0940,24.3,25.7,11111222
Chevron,ioos:station:wmo:42876:1,2021-05-04T19:53:00Z,26.2975,-91.0939,24.0,25.7,11111222
Chevron,ioos:station:wmo:42876:1,2021-05-04T20:03:00Z,26.2975,-91.0939,23.6,25.7,11111222
Chevron,ioos:station:wmo:42876:1,2021-05-04T20:13:00Z,26.2975,-91.0939,23.9,25.8,11111222
Chevron,ioos:station:wmo:42876:1,2021-05-04T20:23:00Z,26.2975,-91.0940,24.0,25.8,11111222
Chevron,ioos:station:wmo:42876:1,2021-05-04T20:33:00Z,26.2975,-91.0940,24.1,25.8,11111222
Chevron,ioos:station:wmo:42876:1,2021-05-04T20:43:00Z,26.2975,-91.0940,24.3,25.8,11111222
Chevron,ioos:station:wmo:42876:1,2021-05-04T20:53:00Z,26.2975,-91.0940,24.6,25.8,11111222
Chevron,ioos:station:wmo:42876:1,2021-05-04T21:03:00Z,26.2975,-91.0940,24.3,25.8,11111222
Chevron,ioos:station:wmo:42876:1,2021-05-04T21:13:00Z,26.2975,-91.0940,24.5,25.8,11111222
Chevron,ioos:station:wmo:42876:1,2021-05-04T21:23:00Z,26.2975,-91.0940,24.6,25.8,11111222
Chevron,ioos:station:wmo:42876:1,2021-05-04T21:33:00Z,26.2975,-91.0940,24.0,25.8,11111222
Chevron,ioos:station:wmo:42876:1,2021-05-04T21:43:00Z,26.2975,-91.0940,24.4,25.8,11111222
Chevron,ioos:station:wmo:42876:1,2021-05-04T21:53:00Z,26.2975,-91.0940,24.3,25.8,11111222
Chevron,ioos:station:wmo:42876:1,2021-05-04T22:03:00Z,26.2975,-91.0940,24.1,25.8,11111222
Chevron,ioos:station:wmo:42876:1,2021-05-04T22:13:00Z,26.2975,-91.0940,24.1,25.8,11111222
Chevron,ioos:station:wmo:42876:1,2021-05-04T22:23:00Z,26.2975,-91.0940,24.4,25.8,11111222
Chevron,ioos:station:wmo:42876:1,2021-05-04T22:33:00Z,26.2975,-91.0940,24.3,25.8,11111222
Chevron,ioos:station:wmo:42876:1,2021-05-04T22:43:00Z,26.2975,-91.0940,24.5,25.8,11111222
Chevron,ioos:station:wmo:42876:1,2021-05-04T22:53:00Z,26.2975,-91.0940,24.4,25.8,11111222
Chevron,ioos:station:wmo:42876:1,2021-05-04T23:03:00Z,26.2975,-91.0940,24.6,25.8,11111222
Chevron,ioos:station:wmo:42876:1,2021-05-04T23:13:00Z,26.2975,-91.0940,24.2,25.8,11111222
Chevron,ioos:station:wmo:42876:1,2021-05-04T23:23:00Z,26.2975,-91.0940,24.1,25.8,11111222
Chevron,ioos:station:wmo:42876:1,2021-05-04T23:33:00Z,26.2975,-91.0940,24.6,25.8,11111222
Chevron,ioos:station:wmo:42876:1,2021-05-04T23:43:00Z,26.2975,-91.0940,24.3,25.8,11111222
Chevron,ioos:station:wmo:42876:1,2021-05-04T23:53:00Z,26.2975,-91.0940,24.2,25.8,11111222
Chevron,ioos:station:wmo:42876:1,2021-05-05T00:03:00Z,26.2975,-91.0940,24.2,25.8,11111222
Chevron,ioos:station:wmo:42876:1,2021-05-05T00:13:00Z,26.2975,-91.0940,24.3,25.8,11111222
Chevron,ioos:station:wmo:42876:1,2021-05-05T00:23:00Z,26.2975,-91.0939,24.2,25.8,11111222
Chevron,ioos:station:wmo:42876:1,2021-05-05T00:33:00Z,26.2975,-91.0940,24.3,25.8,11111222
Chevron,ioos:station:wmo:42876:1,2021-05-05T00:43:00Z,26.2975,-91.0940,24.3,25.8,11111222
Chevron,ioos:station:wmo:42876:1,2021-05-05T00:53:00Z,26.2975,-91.0940,24.3,25.8,11111222
Chevron,ioos:station:wmo:42876:1,2021-05-05T01:03:00Z,26.2975,-91.0940,24.2,25.8,11111222
Chevron,ioos:station:wmo:42876:1,2021-05-05T01:13:00Z,26.2975,-91.0940,24.0,25.8,11111222
Chevron,ioos:station:wmo:42876:1,2021-05-05T01:23:00Z,26.2975,-91.0940,24.3,25.8,11111222
Chevron,ioos:station:wmo:42876:1,2021-05-05T01:33:00Z,26.2975,-91.0940,24.6,25.8,11111222
Chevron,ioos:station:wmo:42876:1,2021-05-05T01:43:00Z,26.2975,-91.0940,24.6,25.8,11111222
Chevron,ioos:station:wmo:42876:1,2021-05-05T01:53:00Z,26.2975,-91.0940,24.2,25.8,11111222
Chevron,ioos:station:wmo:42876:1,2021-05-05T02:03:00Z,26.2975,-91.0940,24.6,25.8,11111222
Chevron,ioos:station:wmo:42876:1,2021-05-05T02:13:00Z,26.2975,-91.0940,24.2,25.8,11111222
Chevron,ioos:station:wmo:42876:1,2021-05-05T02:23:00Z,26.2975,-91.0940,24.5,25.8,11111222
Chevron,ioos:station:wmo:42876:1,2021-05-05T02:33:00Z,26.2975,-91.0940,24.4,25.8,11111222
Chevron,ioos:station:wmo:42876:1,2021-05-05T02:43:00Z,26.2975,-91.0940,24.7,25.8,11111222
Chevron,ioos:station:wmo:42876:1,2021-05-05T02:53:00Z,26.2975,-91.0940,24.7,25.8,11111222
Chevron,ioos:station:wmo:42876:1,2021-05-05T03:03:00Z,26.2975,-91.0940,24.3,25.8,11111222
Chevron,ioos:station:wmo:42876:1,2021-05-05T03:13:00Z,26.2975,-91.0940,24.4,25.8,11111222
Chevron,ioos:station:wmo:42876:1,2021-05-05T03:23:00Z,26.2975,-91.0940,24.3,25.8,11111222
Chevron,ioos:station:wmo:42876:1,2021-05-05T03:33:00Z,26.2975,-91.0940,24.2,25.8,11111222
Chevron,ioos:station:wmo:42876:1,2021-05-05T03:43:00Z,26.2975,-91.0940,24.7,25.8,11111222
Chevron,ioos:station:wmo:42876:1,2021-05-05T03:53:00Z,26.2975,-91.0940,24.4,25.8,11111222
Chevron,ioos:station:wmo:42876:1,2021-05-05T04:03:00Z,26.2975,-91.0940,24.6,25.8,11111222
Chevron,ioos:station:wmo:42876:1,2021-05-05T04:13:00Z,26.2975,-91.0940,24.7,25.8,11111222
Chevron,ioos:station:wmo:42876:1,2021-05-05T04:23:00Z,26.2975,-91.0940,24.3,25.7,11111222
Chevron,ioos:station:wmo:42876:1,2021-05-05T04:33:00Z,26.2975,-91.0940,24.5,25.7,11111222
Chevron,ioos:station:wmo:42876:1,2021-05-05T04:43:00Z,26.2975,-91.0940,24.4,25.8,11111222
Chevron,ioos:station:wmo:42876:1,2021-05-05T04:53:00Z,26.2975,-91.0940,24.5,25.8,11111222
Chevron,ioos:station:wmo:42876:1,2021-05-05T05:03:00Z,26.2975,-91.0940,24.7,25.8,11111222
Chevron,ioos:station:wmo:42876:1,2021-05-05T05:13:00Z,26.2975,-91.0940,24.5,25.8,11111222
Chevron,ioos:station:wmo:42876:1,2021-05-05T05:23:00Z,26.2975,-91.0940,24.4,25.8,11111222
Chevron,ioos:station:wmo:42876:1,2021-05-05T05:33:00Z,26.2975,-91.0940,24.4,25.8,11111222
Chevron,ioos:station:wmo:42876:1,2021-05-05T05:43:00Z,26.2975,-91.0940,24.4,25.8,11111222
Chevron,ioos:station:wmo:42876:1,2021-05-05T05:53:00Z,26.2975,-91.0940,24.5,25.8,11111222
Chevron,ioos:station:wmo:42876:1,2021-05-05T06:03:00Z,26.2975,-91.0940,24.6,25.8,11111222
Chevron,ioos:station:wmo:42876:1,2021-05-05T06:13:00Z,26.2975,-91.0940,24.7,25.8,11111222
Chevron,ioos:station:wmo:42876:1,2021-05-05T06:23:00Z,26.2975,-91.0940,25.2,25.7,11111222
Chevron,ioos:station:wmo:42876:1,2021-05-05T06:33:00Z,26.2975,-91.0940,24.6,25.7,11111222
Chevron,ioos:station:wmo:42876:1,2021-05-05T06:43:00Z,26.2975,-91.0940,24.0,25.7,11111222
Chevron,ioos:station:wmo:42876:1,2021-05-05T06:53:00Z,26.2975,-91.0940,24.6,25.7,11111222
Chevron,ioos:station:wmo:42876:1,2021-05-05T07:03:00Z,26.2975,-91.0940,24.3,25.8,11111222
Chevron,ioos:station:wmo:42876:1,2021-05-05T07:13:00Z,26.2975,-91.0940,24.6,25.8,11111222
Chevron,ioos:station:wmo:42876:1,2021-05-05T07:23:00Z,26.2975,-91.0940,24.7,25.7,11111222